Location: Unspecified
(0.0000°N, 0.0000°E)
Time: 22:56:58
(UTC+00:00)

Vela 2A - Pass Details

Date: 07 September 2024
Orbit: 51020 x 155464 km, 49.4° (Epoch: 10 October)

Event Time Altitude Azimuth Distance (km) Brightness Sun altitude
Rises 02:19:17 0° 118° (ESE) 58,307 ? -54.3°
Reaches altitude 10° 03:43:17 10° 108° (ESE) 59,693 ? -33.5°
Maximum altitude 10:22:46 66° 19° (NNE) 76,796 ? 65.6°
Drops below altitude 10° 17:31:11 10° 312° (NW) 106,905 ? 6.6°
Sets 18:40:31 0° 312° (NW) 111,781 ? -10.6°
